Home > Weather > Riverside > Past weeks

Flag for USA Weather for the Past 2 Weeks in Riverside, California, USA

Now
57 °F

Fog.


Feels Like: 57 °F
Forecast: 55 / 65 °F
Wind: 3 mph from West

Location: Riverside Municipal Airport

Current Time: May 5, 2016 at 5:26:42 AM

Latest Report: May 5, 2016 at 4:53 AM


Visibility: 6 mi

Pressure: 29.87 "Hg

Humidity: 87%

Dew Point: 53 °F

Location of RiversideLocation

Historic Weather in Riverside — Graph

°F

Riverside Temperature Yesterday

Maximum temperature yesterday: 80 °F (at 2:53 PM)
Minimum temperature yesterday: 57 °F (at 4:53 AM)
Average temperature yesterday: 64 °F

High & Low Weather Summary for the Past Weeks

 TemperatureHumidityPressure
High91 °F (May 3, 12:53 PM)90% (Apr 30, 5:53 AM)30.01 "Hg (Apr 30, 5:53 AM)
Low47 °F (Apr 26, 4:53 AM)7% (Apr 20, 11:53 AM)29.70 "Hg (Apr 27, 11:53 PM)
Average64 °F53%29.87 "Hg
* Reported Apr 20 3:53 AM — May 5 3:53 AM, Riverside, Weather by CustomWeather, © 2016

Note: Actual official high and low records may vary slightly from our data, if they occured in-between our weather recording intervals... More about our weather records

Advertising

Riverside Weather History for the Previous 24 Hours

Scroll right to see more
 ConditionsComfort  
Time TempWeatherWind HumidityBarometerVisibility
3:53 AM
Thu, May 5
57 °FOvercast.3 mph83%29.87 "Hg7 mi
2:53 AM58 °FOvercast.7 mph75%29.87 "Hg10 mi
1:53 AM58 °FOvercast.6 mph78%29.88 "Hg10 mi
12:53 AM57 °FMostly cloudy.5 mph81%29.89 "Hg10 mi
11:53 PM
Wed, May 4
57 °FOvercast.7 mph78%29.90 "Hg10 mi
10:53 PM58 °FClear.No wind75%29.90 "Hg10 mi
9:53 PM59 °FClear.5 mph72%29.91 "Hg10 mi
8:53 PM62 °FClear.3 mph67%29.89 "Hg10 mi
7:53 PM63 °FSunny.5 mph65%29.87 "Hg10 mi
6:53 PM64 °FPassing clouds.9 mph63%29.85 "Hg10 mi
5:53 PM67 °FPassing clouds.15 mph59%29.84 "Hg10 mi
4:53 PM70 °FSunny.20 mph55%29.81 "Hg10 mi
3:53 PM75 °FSunny.17 mph47%29.80 "Hg10 mi
2:53 PM80 °FScattered clouds.14 mph39%29.81 "Hg10 mi
1:53 PM78 °FPartly sunny.7 mph40%29.84 "Hg10 mi
12:53 PM74 °FPassing clouds.5 mph46%29.86 "Hg8 mi
11:53 AM69 °FPassing clouds.7 mph57%29.90 "Hg7 mi
10:53 AM67 °FSunny.N/A63%29.91 "HgN/A
9:53 AM61 °FMostly cloudy.9 mph75%29.92 "Hg5 mi
8:53 AM59 °FPartly sunny.3 mph81%29.91 "Hg4 mi
7:53 AM57 °FFog.3 mph87%29.92 "Hg3 mi
6:53 AM57 °FFog.6 mph87%29.91 "Hg5 mi
5:53 AM57 °FClear.No wind83%29.88 "Hg9 mi
Weather by CustomWeather, © 2016

See weather overviewHow to use our weather pages